Wind_Speed
24 22 20 19 19 20 22 23 23 24 25 27 30 34 38 44 48 50 51 52 52 51 49 47 48 50 50 47 39 35 37 39 39 38 38 38 38 37 37 38 38 38 38 39 39 38 37 37 37 38 39 39 39 38 36 35 35 35 35 35 34 33 32 31 30 30 29 28 27 26 25 25 25 25 24 23 24 25 26 26 26 26 26 26 26
30 28 27 26 25 23 24 26 26 27 28 29 30 31 34 38 43 48 51 53 54 53 52 50 50 49 49 49 47 43 42 42 42 41 40 41 40 40 40 41 40 38 38 39 40 38 37 37 37 38 39 39 39 38 36 35 35 34 34 32 31 29 28 27 26 25 25 25 24 22 21 21 21 22 23 22 22 23 24 24 23 22 22 22 22
34 34 34 33 32 30 29 29 29 30 30 32 33 34 35 36 38 43 47 52 55 55 54 52 52 51 50 49 50 50 48 46 46 46 46 46 45 44 44 44 42 39 39 40 40 37 36 36 37 38 39 39 39 38 36 35 34 33 32 30 28 26 24 23 22 22 22 22 21 19 18 18 19 20 21 21 20 20 20 20 20 19 19 19 19
39 39 39 39 39 39 37 36 35 35 34 34 35 36 37 37 38 41 44 48 53 56 56 54 53 54 52 49 50 52 52 51 51 52 53 52 50 49 49 48 44 41 40 40 38 36 36 37 37 37 38 39 39 38 36 34 33 31 29 27 25 23 21 20 20 19 19 18 17 17 17 17 17 17 17 17 17 17 17 17 17 16 16 16 17
43 43 44 45 46 46 45 45 44 43 42 41 40 40 40 40 41 42 44 47 50 52 55 56 54 54 54 52 52 53 53 53 54 55 55 53 52 51 50 50 46 43 42 40 37 38 39 38 36 35 37 38 38 37 36 34 31 29 27 25 23 20 19 18 17 16 15 15 15 15 15 14 13 13 13 13 15 15 15 15 15 15 15 15 16
46 46 48 49 51 52 52 52 52 51 51 50 49 48 46 44 44 44 44 46 49 50 51 54 55 54 55 56 55 54 54 53 54 55 54 53 52 49 50 52 48 44 42 40 39 40 41 39 35 33 35 37 37 37 35 33 30 27 25 23 20 19 17 15 14 13 13 13 13 12 12 11 11 12 12 13 14 15 15 15 15 15 15 15 16
48 49 51 53 55 56 57 58 58 58 57 56 56 56 54 51 48 46 44 44 48 50 51 53 55 56 56 58 58 56 54 53 53 54 54 54 53 50 50 51 48 43 42 41 42 42 41 38 33 32 35 36 37 37 35 32 29 26 24 21 18 16 14 13 12 13 12 11 10 10 10 11 12 12 13 13 13 13 13 14 14 14 14 15 16
49 51 53 55 58 60 61 62 62 62 63 63 62 62 61 58 54 50 46 44 45 48 49 48 51 55 58 59 59 57 55 54 54 54 54 54 53 50 48 46 44 42 41 42 44 44 40 36 33 33 35 37 37 38 36 32 28 25 23 20 17 15 13 12 12 11 10 9 8 8 9 10 11 12 12 13 12 12 12 12 12 13 14 15 16
51 53 55 57 60 63 65 66 67 67 68 68 67 66 65 62 58 53 48 45 44 46 44 40 40 46 53 58 59 58 56 55 54 53 52 52 52 51 48 44 42 41 41 43 45 45 41 36 35 35 36 37 37 37 37 32 27 24 22 19 17 14 13 12 11 9 8 7 7 8 8 9 9 10 10 11 11 11 11 10 11 11 12 14 16
53 54 56 58 61 64 66 68 69 70 71 72 71 70 68 64 60 55 50 46 44 45 46 44 42 43 47 51 56 58 56 55 54 53 52 51 51 50 49 46 43 42 43 43 45 46 43 38 36 35 36 37 38 37 37 33 27 23 21 18 16 14 12 11 9 7 6 6 7 8 8 8 8 8 8 8 9 10 10 10 11 11 13 14 15
56 57 58 60 62 65 67 69 70 71 73 74 74 72 69 65 60 55 51 46 44 45 47 49 49 49 48 47 49 53 54 54 53 51 50 50 48 48 47 46 45 44 43 43 44 45 45 41 38 36 35 37 38 37 36 34 28 23 21 18 15 13 11 9 7 6 6 6 7 7 7 7 7 7 7 7 8 9 10 11 11 12 13 14 15
60 61 62 63 64 66 69 71 73 74 74 75 75 73 69 63 58 54 51 47 44 45 47 49 50 50 50 49 48 49 51 53 52 50 48 47 46 45 45 45 45 44 43 43 44 45 45 43 40 37 35 35 37 37 36 34 29 24 21 18 14 12 10 8 6 6 6 7 7 7 7 7 6 6 6 6 7 8 9 10 11 12 13 14 16
64 66 67 68 69 70 71 73 75 77 77 76 75 72 67 61 56 52 50 47 44 45 47 50 50 47 47 50 51 49 49 51 51 51 49 46 44 44 45 44 44 44 43 43 44 45 46 45 43 39 36 34 35 36 36 34 30 24 20 17 13 11 9 7 6 6 6 6 7 6 6 6 5 6 6 6 7 7 8 10 11 12 13 14 15
69 71 73 75 76 76 76 77 78 80 79 77 73 69 65 59 53 49 47 46 44 45 47 49 51 50 49 51 52 49 49 51 51 51 50 47 44 43 44 46 46 44 43 43 44 45 46 47 45 42 38 35 34 35 36 34 30 25 19 15 12 10 8 7 5 5 5 5 5 5 5 5 5 5 5 6 7 8 8 9 11 12 13 14 15
71 73 75 78 79 80 80 81 82 82 81 77 71 66 61 57 51 47 44 44 43 44 47 49 50 53 55 56 55 52 52 52 51 51 51 50 46 43 44 46 47 45 44 44 45 46 47 47 47 44 40 37 34 35 35 33 30 25 19 15 13 10 9 7 5 4 4 4 4 4 5 5 5 5 5 6 7 8 8 9 10 12 13 14 15
73 75 77 80 81 82 83 84 84 84 81 76 70 63 58 54 50 45 42 41 41 42 45 48 49 52 56 58 57 55 54 54 52 51 51 50 48 45 44 45 47 46 46 45 46 47 47 47 46 45 42 39 36 35 36 33 30 25 20 16 14 12 10 7 4 3 3 3 4 5 5 6 6 6 5 6 6 8 9 9 9 11 13 15 16
76 79 82 84 85 85 85 85 86 85 80 74 67 61 56 52 48 44 40 39 39 40 42 46 49 51 55 58 58 55 53 52 54 55 53 51 49 47 45 46 47 47 47 47 47 47 48 47 45 44 43 40 37 36 36 33 29 26 21 16 14 14 11 8 5 4 3 4 5 5 6 6 6 5 5 5 6 7 8 9 10 11 12 14 15
80 83 85 87 89 88 87 87 87 85 80 72 64 59 55 51 47 43 39 37 37 38 41 44 47 50 54 59 61 60 54 49 50 53 54 53 51 50 48 47 47 48 48 48 48 47 47 46 45 44 43 40 37 36 36 32 28 25 21 16 14 14 12 9 6 5 5 5 5 5 6 6 6 5 5 5 5 6 7 9 10 11 12 13 15
82 85 87 89 91 91 90 89 88 84 78 71 63 58 54 49 45 42 38 35 35 37 39 42 44 47 52 57 62 65 62 55 49 47 50 53 54 52 51 49 49 50 49 49 49 48 47 47 45 43 42 40 38 36 35 32 27 24 21 17 14 13 12 10 7 6 6 6 6 6 6 5 5 5 5 5 5 6 7 8 9 11 12 13 14
83 86 88 90 92 92 92 91 89 84 77 69 63 57 53 48 44 41 38 34 33 35 38 40 42 45 49 55 60 64 66 64 56 47 44 47 51 53 53 51 50 51 50 49 49 48 48 47 45 42 41 39 37 36 34 31 26 23 21 17 13 12 12 11 8 6 6 7 7 6 6 5 5 5 5 5 6 6 7 7 8 10 11 12 13
84 87 89 91 92 92 92 92 91 85 76 69 63 57 51 47 43 40 37 34 32 33 36 39 42 44 47 52 58 63 66 66 62 54 46 45 47 51 53 52 51 51 50 49 49 48 46 45 44 42 41 40 37 36 33 29 25 23 20 17 13 12 12 11 9 7 6 6 6 6 5 4 4 4 5 5 6 7 7 8 9 9 10 12 13
86 88 90 92 93 93 92 92 90 84 76 69 63 56 50 45 42 39 37 34 32 32 35 38 41 43 46 50 55 61 65 66 64 60 54 50 49 50 51 52 52 51 51 50 49 47 46 45 44 43 42 40 38 35 32 28 24 22 20 17 13 12 11 10 9 7 6 5 4 4 3 3 3 4 5 6 7 7 8 9 9 10 11 12 14
88 90 92 94 94 94 93 93 90 83 75 69 63 56 49 44 41 39 37 34 32 31 33 36 39 42 45 48 52 57 63 67 66 64 59 55 53 52 51 52 52 51 51 50 49 48 47 46 45 44 43 40 38 34 31 26 23 21 20 17 14 12 10 10 9 8 6 5 4 4 3 3 4 5 6 7 7 8 9 9 10 11 12 13 14
89 92 94 95 96 95 95 94 90 82 74 68 63 56 49 44 40 39 37 34 32 30 31 34 37 41 43 45 48 54 61 66 68 66 62 58 56 53 51 50 48 47 48 48 47 47 47 45 44 44 42 39 36 33 29 26 22 21 20 17 15 13 11 10 10 9 8 6 5 5 4 3 4 5 6 7 8 8 9 10 11 12 13 14 14
90 93 95 96 97 97 96 95 91 82 74 68 63 56 49 44 40 38 37 35 32 30 31 33 35 38 41 43 46 51 57 63 67 67 65 61 57 54 53 50 46 44 45 46 45 45 44 43 43 42 40 38 35 32 28 25 22 21 20 18 16 14 12 11 11 10 9 8 7 7 5 4 5 6 6 7 8 9 9 10 11 12 13 14 14
92 94 96 97 97 97 97 96 92 83 74 68 62 56 49 44 40 38 36 35 33 31 30 32 33 35 38 42 45 49 55 61 65 67 66 63 58 56 55 53 49 47 46 46 46 45 44 43 43 42 39 37 35 31 27 24 22 21 20 18 16 15 14 12 11 11 10 10 9 8 6 5 5 6 7 8 9 9 10 10 10 11 12 13 13
93 95 97 98 98 97 97 96 92 84 75 69 63 56 49 44 40 38 36 35 33 31 30 30 32 34 36 40 44 47 52 58 64 67 67 65 62 60 58 56 53 50 50 50 49 47 47 46 45 42 40 38 35 31 27 25 22 21 20 18 16 16 15 14 13 12 11 10 10 9 7 6 7 8 8 9 10 10 10 9 9 10 10 11 11
94 97 98 99 98 98 97 96 92 84 76 70 64 57 51 44 39 36 35 34 33 31 30 29 30 32 34 38 42 46 50 56 62 67 68 67 66 64 61 58 56 55 55 54 52 51 49 48 46 44 42 39 36 32 29 26 23 22 21 19 16 15 15 15 14 13 11 10 10 9 8 7 7 8 9 9 10 10 10 8 8 8 8 8 9
95 98 99 100 99 99 98 96 93 85 77 71 64 57 51 46 41 36 34 33 32 31 29 28 29 31 32 36 40 44 48 54 60 66 69 70 69 67 64 61 60 59 59 59 57 55 52 49 48 48 45 41 38 35 30 26 24 23 22 20 17 15 14 15 15 14 12 11 10 10 8 7 7 8 9 9 10 10 8 7 6 6 5 6 6
96 98 100 100 100 100 98 97 94 86 78 72 66 58 49 44 42 39 35 31 30 30 29 27 27 29 31 34 38 42 47 52 58 63 68 71 70 68 66 64 62 61 62 62 60 57 54 52 52 52 48 43 40 37 32 28 25 24 23 21 18 15 14 15 16 15 12 11 11 11 10 9 8 9 10 9 9 8 6 4 4 3 3 5 7
96 98 100 100 100 100 99 98 95 87 79 73 68 61 52 43 38 37 36 32 29 28 28 27 26 27 30 32 36 41 46 51 56 60 66 70 71 70 68 66 64 63 63 62 61 59 57 56 56 55 51 45 43 40 36 31 27 24 24 22 20 17 16 16 18 17 14 12 12 13 12 11 10 10 11 9 8 6 3 1 1 2 5 7 7
96 98 99 100 100 99 99 98 95 88 80 74 68 62 56 47 38 33 32 33 30 26 26 26 25 26 29 32 35 39 45 50 54 57 62 67 71 73 72 70 67 65 63 63 62 60 59 58 58 55 51 48 46 44 40 34 29 24 23 23 22 20 18 18 19 18 16 14 14 14 14 13 11 11 11 9 7 5 2 3 4 5 7 8 7
96 98 100 100 99 99 98 97 95 89 81 75 69 62 57 51 44 35 29 28 29 27 25 25 25 25 27 31 34 37 42 47 51 55 59 64 70 74 75 73 71 68 66 65 64 63 62 60 58 54 52 52 49 44 40 38 33 27 24 24 23 22 21 20 19 19 17 16 15 15 15 14 12 11 11 9 7 5 5 8 8 8 8 8 7
97 99 100 100 99 99 97 96 94 89 81 75 70 63 56 52 47 41 32 26 25 26 25 24 24 25 26 29 32 35 39 44 49 53 58 62 67 72 75 75 74 71 69 68 68 67 66 64 61 58 57 56 52 46 43 42 37 30 25 24 25 24 22 21 20 19 18 16 15 16 15 14 12 12 10 9 7 6 9 12 12 10 8 7 7
98 100 101 101 100 99 98 96 93 88 81 76 70 64 57 52 48 44 37 29 24 24 25 24 24 25 26 27 30 34 37 41 47 52 57 61 65 69 73 75 76 75 73 72 71 70 68 67 64 62 61 59 54 49 47 45 40 33 27 26 26 25 24 22 21 20 19 17 16 16 16 14 13 12 11 10 9 10 12 15 14 12 9 8 7
98 101 102 102 101 100 98 96 93 88 81 76 71 65 58 52 48 44 39 32 25 22 23 24 24 25 25 26 29 33 36 40 45 50 55 59 63 66 70 74 76 77 77 76 75 73 70 69 67 65 63 61 57 53 49 46 42 37 31 27 27 27 26 24 23 22 19 18 17 16 16 15 14 12 11 11 11 13 15 16 15 13 11 9 8
98 100 102 102 101 100 98 96 94 88 81 75 71 65 59 53 49 45 41 35 27 22 22 23 24 24 25 26 28 31 35 38 42 48 53 58 62 65 68 72 75 77 78 78 77 75 73 71 70 67 65 63 59 56 52 49 45 41 35 29 27 27 27 26 25 23 21 19 18 17 17 16 15 13 13 13 14 16 18 18 16 14 12 10 8
98 100 101 101 100 100 98 96 93 88 81 75 71 65 59 54 49 45 42 37 30 24 21 22 23 24 25 26 27 30 33 37 40 45 50 55 60 63 66 70 73 75 77 78 78 77 75 74 72 69 66 64 61 58 55 51 48 45 40 34 29 28 28 28 27 25 23 21 19 18 17 16 15 14 15 16 17 18 19 19 17 15 13 11 10
98 100 101 100 100 99 97 96 93 88 82 76 71 66 60 54 49 45 42 38 32 26 21 20 22 24 25 26 27 29 32 35 39 43 48 52 57 61 64 67 71 74 76 78 78 78 77 76 74 71 68 65 63 60 57 54 50 47 44 39 33 29 29 30 29 27 25 23 21 18 17 16 16 16 18 19 20 21 21 20 18 16 15 13 11
99 100 101 100 99 98 97 95 93 88 81 76 72 66 60 55 50 45 42 38 34 28 23 20 21 23 24 26 27 28 31 34 37 41 45 50 54 59 62 65 68 72 75 77 78 78 77 76 75 73 70 67 65 63 60 56 53 50 48 44 37 31 29 31 31 29 27 25 22 19 18 17 17 18 20 22 22 23 23 21 19 17 16 15 13
98 100 101 100 99 98 97 95 92 88 81 75 71 67 61 55 50 45 42 39 34 30 25 21 20 21 24 25 26 28 30 32 35 39 43 47 51 56 60 64 67 70 73 76 77 78 77 76 75 74 72 70 68 65 62 58 55 52 50 47 41 33 30 31 34 32 29 26 23 20 19 19 19 20 23 24 24 24 24 23 20 19 18 17 15
98 100 100 100 99 98 97 95 92 88 81 75 71 67 61 56 51 46 42 39 35 31 26 22 20 20 22 24 26 27 29 31 34 37 40 44 48 53 58 62 66 68 71 74 76 77 77 76 75 74 73 71 69 67 63 60 56 54 51 49 44 36 31 32 35 35 32 28 25 22 21 21 21 23 25 26 26 26 26 24 22 20 19 19 17
99 99 99 99 98 97 96 95 92 88 81 75 71 67 62 56 52 47 43 40 36 32 27 24 21 20 21 23 25 27 29 30 32 35 38 41 45 50 55 60 64 67 70 72 75 77 77 76 75 74 73 72 70 68 65 62 59 56 53 51 46 39 33 33 35 36 34 30 27 24 23 23 23 25 27 28 28 28 27 25 23 22 22 21 20
98 99 99 98 97 97 96 94 92 88 81 76 72 67 62 57 52 47 43 40 37 33 29 25 22 20 20 22 24 27 28 29 31 33 36 39 43 47 52 57 61 64 67 70 73 75 76 76 75 75 74 73 71 69 66 64 61 58 55 52 48 42 37 35 36 36 35 32 29 26 25 25 26 27 28 29 29 29 29 27 25 24 24 23 21
99 99 98 98 97 96 95 94 92 88 82 76 72 68 63 57 53 49 44 40 37 34 30 27 24 21 20 21 23 26 28 29 30 32 35 38 41 44 49 53 58 62 65 68 70 72 75 75 74 75 74 73 71 69 67 65 62 59 56 54 50 45 40 37 36 36 36 35 33 30 27 27 28 29 30 31 31 31 30 29 28 26 25 24 23
99 98 98 97 96 96 95 94 92 88 83 77 72 68 63 58 53 49 46 41 38 34 31 28 25 23 21 20 22 25 27 29 30 32 34 36 39 42 46 50 55 60 63 66 67 70 72 73 74 75 75 74 72 71 69 66 63 59 56 55 52 48 44 39 37 38 39 38 36 34 31 30 30 31 32 33 32 32 32 31 30 28 27 26 26
98 98 97 97 96 95 95 93 91 88 83 78 73 69 64 59 53 49 46 43 39 35 32 29 27 24 22 21 21 23 26 28 30 32 33 35 38 40 44 47 52 56 61 64 66 67 70 72 73 74 75 74 73 71 69 67 64 60 57 56 55 53 50 45 41 40 42 41 39 37 36 34 32 32 34 35 35 34 33 33 32 31 30 29 28
98 97 97 96 96 95 94 93 91 87 83 78 74 70 65 60 55 50 46 43 40 36 33 30 28 26 23 21 21 22 25 27 29 31 33 34 36 39 42 45 49 53 57 61 64 66 68 70 72 74 75 75 74 72 70 67 64 62 60 58 57 56 54 50 45 42 43 44 42 40 40 38 36 35 36 37 37 36 35 35 35 34 33 32 31
97 97 96 96 95 95 94 93 90 87 82 79 75 71 66 61 56 50 46 43 40 37 33 30 28 27 25 23 21 22 24 26 28 30 32 34 35 37 40 43 46 49 53 57 61 64 66 68 70 72 74 75 75 75 73 69 65 63 62 61 60 58 57 54 49 45 44 45 44 43 43 41 39 37 37 38 39 39 37 37 37 37 36 35 33
97 97 96 96 95 95 94 92 90 86 82 79 76 72 67 62 57 52 47 43 40 38 35 31 28 27 26 24 23 22 23 25 27 30 31 33 35 36 39 41 44 46 50 53 58 62 65 67 69 71 73 74 76 77 76 73 69 65 64 63 63 61 60 57 54 49 47 46 46 46 46 44 42 41 40 40 40 41 40 40 39 39 39 38 36
97 96 96 96 96 95 94 92 89 85 81 79 76 73 68 63 58 53 48 44 40 38 36 33 29 27 26 26 24 23 23 24 26 28 30 32 34 35 37 39 42 44 47 50 54 59 63 66 68 70 72 73 75 76 77 76 73 68 65 64 64 64 63 61 58 54 50 48 48 49 49 48 46 44 43 41 42 43 43 42 42 42 41 40 39
Wind_Direction
12 8 2 353 345 336 328 325 324 324 324 323 317 307 295 286 281 278 278 278 279 279 281 284 286 288 290 291 288 283 283 287 292 298 303 305 307 311 316 317 319 321 320 319 318 316 315 315 318 321 322 324 323 321 317 313 310 308 306 304 303 302 301 301 300 300 300 300 299 298 298 299 300 301 302 304 305 305 306 305 304 303 303 302 302
4 2 359 354 348 340 330 323 320 318 317 317 318 316 311 302 291 282 277 276 277 277 278 279 280 282 285 286 286 282 279 280 285 290 296 300 300 303 310 314 317 319 319 321 322 320 317 318 320 323 324 325 325 322 318 315 313 311 309 307 306 305 304 304 304 304 303 301 301 303 305 308 310 311 312 312 312 310 308 307 306 306 307 309 310
358 355 353 351 347 344 338 330 325 320 317 314 312 310 311 310 303 292 282 276 274 274 276 276 276 277 281 282 282 281 279 278 280 284 289 293 294 297 303 310 315 317 318 321 323 323 321 321 321 323 325 326 326 323 320 317 315 313 311 310 309 309 308 309 309 307 304 304 307 312 317 319 319 318 317 315 313 310 309 311 314 316 319 321 320
353 351 349 347 345 343 340 337 332 327 322 317 312 307 304 302 301 297 290 281 274 271 272 274 274 274 277 278 277 278 279 278 279 282 286 288 290 293 297 303 309 313 315 319 323 327 327 325 324 324 325 327 328 326 323 320 318 316 315 314 314 313 314 314 312 308 306 311 318 324 326 325 323 320 317 315 313 314 317 321 324 327 330 330 330
350 348 347 344 343 341 340 337 334 331 327 323 318 313 308 302 298 295 291 286 279 273 270 270 271 272 273 273 273 275 276 277 278 281 284 286 287 290 294 298 303 307 310 314 319 326 329 327 324 324 326 329 330 329 326 322 320 319 319 319 319 319 320 317 312 310 316 323 328 329 328 326 324 322 321 321 323 326 328 329 332 337 339 342 343
347 346 345 343 341 340 339 337 334 332 329 326 323 319 315 308 300 294 289 285 281 277 272 267 266 268 270 270 271 273 274 274 276 279 281 282 284 287 291 295 298 301 305 308 312 320 327 328 325 326 328 331 333 332 329 325 322 323 324 324 324 324 322 318 318 323 329 332 330 329 332 333 336 336 337 338 337 335 334 335 342 348 352 355 356
346 344 343 342 340 339 337 335 333 331 329 327 323 320 316 311 304 295 288 282 278 276 274 269 265 264 266 267 269 271 272 272 271 273 276 278 280 285 289 292 294 296 299 303 307 313 322 327 328 328 331 334 336 336 332 328 326 327 327 328 329 328 326 327 331 333 331 330 332 338 346 350 349 346 344 344 341 339 340 346 353 0 5 7 5
344 343 342 341 339 337 336 334 332 331 328 326 323 319 316 312 307 298 289 281 274 271 272 274 270 265 263 264 266 267 268 268 269 270 272 275 279 283 286 289 290 293 295 299 304 309 316 323 326 329 333 336 338 338 335 331 329 330 330 331 331 329 331 336 334 330 329 332 344 357 359 358 353 348 346 343 342 344 348 354 1 11 17 16 11
343 342 341 340 338 337 335 334 332 330 327 324 321 318 315 311 307 300 291 281 272 266 265 268 269 265 262 261 262 263 264 264 266 269 270 273 278 281 283 285 286 288 292 297 302 306 311 318 322 325 331 336 338 339 338 333 331 332 332 331 331 332 334 336 331 329 336 346 1 6 1 355 352 351 349 344 341 345 351 356 5 17 24 22 18
342 341 340 339 338 336 334 332 331 329 326 323 320 317 314 310 306 300 292 282 272 264 258 255 256 257 259 260 260 260 261 262 263 265 267 270 275 278 280 281 283 285 290 295 299 303 307 312 317 320 326 334 338 339 339 336 332 332 331 329 329 332 335 331 329 334 344 357 6 3 353 350 352 353 351 344 340 343 349 355 4 15 24 25 22
340 340 339 338 337 335 334 332 330 328 325 322 319 316 313 310 305 299 292 283 272 263 256 252 250 250 251 254 255 255 256 258 259 261 264 268 271 275 277 279 280 283 288 292 295 300 303 307 312 316 320 328 336 339 339 337 333 331 330 326 326 332 332 327 327 337 348 359 2 354 347 348 349 348 346 342 340 342 346 354 0 9 17 20 19
340 339 337 336 336 336 335 333 330 328 325 322 319 316 313 309 304 298 291 283 272 262 256 251 249 248 247 246 250 253 252 253 255 256 259 263 267 271 274 276 279 281 285 289 291 295 299 303 308 313 316 323 332 338 339 337 334 331 328 324 326 332 330 322 325 338 351 359 357 350 347 345 344 343 341 337 336 338 345 350 355 2 9 12 14
340 338 337 336 336 336 336 334 331 328 326 323 320 316 313 309 304 298 290 283 273 263 256 251 246 246 245 243 245 249 248 248 251 252 253 257 262 266 269 272 276 280 282 284 287 291 295 299 304 309 314 319 328 336 337 336 334 331 326 324 327 330 324 318 327 341 352 357 354 349 346 340 339 341 337 333 332 334 343 347 347 354 360 3 7
340 339 338 337 337 337 337 335 333 330 327 324 321 317 313 309 305 298 290 283 274 264 256 251 245 242 241 238 238 242 245 245 246 247 248 251 254 260 265 268 272 276 278 280 283 286 291 296 300 305 311 316 323 332 335 335 334 330 324 323 325 322 314 313 324 341 352 352 347 341 336 336 338 339 339 338 334 333 338 341 340 345 352 355 360
339 339 338 338 337 337 337 336 334 331 328 326 322 318 314 310 305 299 290 282 275 265 257 252 246 240 237 234 232 236 241 242 242 243 244 246 249 254 260 264 267 271 273 275 279 283 288 292 296 301 308 312 318 328 333 333 332 329 322 320 320 310 302 303 311 330 343 337 330 326 327 335 337 338 342 345 339 333 333 335 336 339 344 348 352
339 338 338 338 338 338 338 336 334 332 330 327 324 320 316 311 306 300 291 281 274 266 258 252 247 241 236 233 231 233 237 239 239 239 240 242 244 248 254 259 262 265 268 271 276 280 284 289 293 298 304 309 315 324 330 330 329 326 320 316 315 306 297 294 294 303 315 310 309 315 325 334 333 334 343 348 341 333 329 330 335 337 340 343 347
340 340 339 339 339 338 338 337 335 333 331 328 325 322 318 313 307 301 293 283 273 265 258 253 248 242 237 232 229 229 233 237 238 237 237 239 241 243 247 253 257 261 265 269 273 277 281 286 291 295 300 306 312 321 327 327 325 324 320 314 313 307 298 292 288 287 291 293 298 309 320 325 324 328 345 351 343 337 332 333 338 341 342 344 346
341 341 340 340 339 339 339 338 337 335 332 330 328 324 319 315 309 303 295 285 275 265 258 253 248 243 237 232 228 227 228 232 237 238 237 236 239 242 244 248 253 257 261 265 269 274 278 283 288 292 296 302 309 317 324 324 322 322 319 312 311 309 302 294 289 289 290 290 295 305 314 317 318 328 350 358 351 344 343 342 345 345 346 347 347
341 341 341 340 339 339 339 339 338 337 334 332 330 326 321 316 311 305 297 288 276 266 259 254 249 244 238 234 230 228 227 228 232 238 238 237 238 240 242 245 249 254 258 262 266 270 274 279 284 288 293 299 305 312 320 321 318 318 316 310 309 310 303 295 291 291 292 292 295 301 306 310 317 331 352 2 359 353 352 353 352 349 348 349 350
341 341 341 340 340 340 340 340 339 338 335 333 331 328 324 318 312 306 300 290 279 267 259 254 250 245 240 235 231 229 227 227 229 233 237 238 238 239 242 244 247 252 255 259 263 267 271 275 280 285 289 295 301 307 315 318 314 313 313 309 306 308 304 297 293 291 292 290 289 293 296 302 314 330 346 358 359 355 354 356 354 351 348 348 349
341 341 341 341 341 341 341 341 341 339 337 335 333 330 325 320 314 307 301 293 282 270 261 254 249 244 240 236 232 229 227 227 227 227 230 234 236 237 239 242 246 249 253 257 260 264 269 272 276 280 285 290 296 302 310 314 310 307 309 307 302 303 303 299 295 294 293 288 282 281 283 291 310 326 337 348 351 350 351 352 350 349 347 346 346
341 341 341 341 341 342 342 342 341 340 338 336 334 332 327 321 315 308 302 295 286 274 263 256 250 245 241 237 233 229 227 226 225 224 225 228 232 234 237 240 243 247 251 254 258 261 265 268 272 276 280 286 291 297 305 309 304 301 304 303 297 295 297 297 295 295 292 285 275 270 273 287 307 318 326 334 339 340 342 345 343 342 344 343 344
341 342 342 342 342 342 343 343 343 341 339 337 335 333 329 323 316 309 304 298 290 278 266 258 253 247 242 238 234 230 227 225 225 224 223 226 230 233 237 240 243 246 249 252 255 258 261 264 268 272 277 282 287 293 300 304 299 294 297 298 292 289 290 291 291 292 290 284 275 270 276 293 304 310 319 325 328 332 334 336 337 336 338 339 341
342 342 342 342 343 343 343 344 344 342 340 339 337 334 330 325 318 311 305 299 292 281 270 261 254 249 245 241 237 232 228 226 226 225 223 225 228 232 235 239 242 245 247 249 251 254 257 260 265 269 273 278 283 288 296 299 293 287 291 294 290 284 282 283 286 289 291 287 281 278 282 295 301 308 317 319 321 324 328 331 332 331 332 334 337
342 342 343 343 343 344 344 344 344 343 341 340 338 335 331 327 320 313 306 300 293 283 272 264 256 250 246 243 239 234 231 228 227 225 223 224 226 230 233 235 237 240 243 245 247 250 254 257 262 266 271 275 278 284 291 294 288 282 285 290 288 282 277 277 282 287 289 288 285 282 283 291 298 306 315 316 317 321 325 329 330 330 330 331 335
342 342 343 343 344 344 344 345 345 344 342 341 339 336 333 328 322 315 307 301 295 286 276 267 260 253 246 242 238 235 232 229 227 226 224 223 224 227 230 233 234 237 240 243 245 248 251 255 259 263 268 271 274 279 286 289 285 280 281 285 285 280 275 274 277 281 283 284 283 283 287 293 299 306 314 317 317 318 323 328 330 329 330 331 333
342 342 343 344 344 345 345 345 345 344 343 342 340 338 334 330 324 317 309 302 295 288 279 269 262 255 247 240 237 235 232 229 227 226 224 222 222 225 228 230 233 236 240 243 245 247 251 254 258 261 264 267 269 274 279 283 282 278 277 281 283 280 275 272 273 275 276 275 276 280 288 296 302 307 313 316 315 316 321 328 332 332 332 333 336
342 342 343 344 345 345 345 346 346 345 343 342 341 339 336 332 327 319 311 304 297 290 282 272 263 256 249 241 236 233 231 229 227 226 225 223 222 224 226 228 231 234 239 243 246 248 251 254 256 258 260 263 265 269 274 278 278 275 274 276 280 279 274 270 270 271 270 267 267 272 280 289 297 302 307 310 311 314 321 329 334 336 338 342 348
342 342 343 344 345 345 345 346 346 346 344 342 341 340 338 334 329 322 314 306 299 292 285 275 265 258 250 243 237 232 229 228 227 226 225 224 223 223 225 227 230 233 238 242 245 248 250 252 254 256 258 260 262 265 269 273 274 272 271 273 275 275 271 266 266 267 264 259 262 269 275 281 288 293 298 301 304 309 319 331 337 343 355 9 18
341 342 343 344 345 345 345 346 346 346 345 343 341 340 340 337 331 324 317 309 302 295 287 278 267 259 252 245 239 234 229 227 227 225 225 224 224 223 224 227 230 233 238 242 244 247 248 250 253 256 256 257 260 263 266 269 270 270 270 270 269 267 264 260 261 262 260 257 262 270 274 276 281 286 291 295 299 304 315 334 343 6 47 57 56
341 342 343 344 345 345 346 346 347 346 345 344 342 339 339 339 336 327 318 312 305 297 289 281 270 259 252 245 239 234 230 228 227 226 225 225 224 223 223 225 228 232 237 240 243 245 246 248 251 254 255 255 258 261 263 265 268 268 268 268 265 262 259 257 258 260 259 255 257 264 270 272 276 281 286 291 293 296 306 347 62 103 101 90 75
340 341 342 343 345 345 346 346 347 346 345 344 343 340 338 338 338 332 321 313 308 301 292 284 274 261 252 245 239 234 231 229 227 226 225 224 224 223 223 224 226 229 233 237 240 243 245 247 249 252 253 254 256 259 262 264 267 268 266 264 261 259 258 257 259 261 258 252 251 258 264 268 271 276 282 285 283 276 225 153 156 142 122 108 89
340 341 342 343 344 345 346 346 346 346 345 344 343 341 339 337 337 336 328 316 310 305 296 286 277 266 255 247 241 235 232 230 228 227 225 224 224 224 224 224 225 227 230 234 238 240 243 245 247 248 249 252 255 256 258 261 264 265 264 261 257 255 256 258 261 262 259 251 248 254 261 265 268 271 275 275 267 241 178 159 162 154 136 121 103
340 341 342 343 344 345 346 347 347 346 345 344 343 341 339 337 336 335 333 324 313 306 299 289 278 269 259 250 243 238 233 230 228 226 225 224 224 224 225 225 225 226 228 231 235 238 241 244 245 246 249 252 254 254 256 260 262 262 261 259 255 252 254 257 260 262 260 253 249 253 259 261 263 266 266 259 244 212 175 164 164 162 148 134 117
339 341 341 342 344 345 345 346 347 346 345 344 343 342 340 338 336 334 333 329 319 308 300 291 280 272 263 253 246 240 235 230 227 226 225 225 225 225 225 225 225 226 227 230 233 237 240 242 244 245 248 252 253 253 254 259 261 260 259 259 257 254 253 256 259 260 259 255 251 252 256 258 257 256 252 242 224 198 176 168 168 166 160 149 134
339 340 341 342 343 344 345 346 347 346 345 344 343 342 340 338 336 334 333 330 324 313 301 292 283 274 266 257 248 242 237 232 228 226 225 225 225 225 225 225 226 227 228 230 233 235 238 240 243 245 247 250 251 251 252 256 260 260 258 258 258 256 253 253 256 257 257 255 253 252 254 254 250 245 237 227 212 193 180 174 172 171 169 161 149
339 340 341 341 342 343 344 345 346 346 345 344 343 342 340 338 336 334 332 330 326 317 305 294 285 277 268 260 251 244 239 234 230 228 226 225 225 225 225 225 226 227 229 231 233 235 236 239 241 244 246 248 250 251 252 255 259 260 258 256 258 258 254 252 253 255 255 255 255 253 252 250 244 234 224 216 206 193 184 179 177 175 174 169 161
338 339 340 341 341 342 343 345 346 346 345 344 344 342 340 338 336 334 332 329 326 320 309 296 287 279 271 262 254 247 242 236 232 229 228 227 226 226 226 226 226 227 228 231 233 235 236 238 241 243 244 247 249 251 252 254 257 259 259 258 258 259 255 250 250 253 254 255 256 254 251 248 240 227 217 210 203 194 188 184 182 180 179 176 171
338 339 339 340 341 342 343 344 345 346 345 344 344 342 340 338 336 334 332 329 325 321 313 300 289 280 273 265 257 249 244 239 234 231 229 228 228 228 227 226 226 226 228 230 233 235 237 239 241 242 243 245 247 249 250 252 254 256 259 259 257 255 253 250 248 250 252 253 254 253 250 244 236 224 214 208 202 197 192 190 188 186 184 182 179
337 338 339 339 340 341 342 343 344 345 345 344 344 342 340 338 336 334 331 328 325 321 316 305 291 281 273 267 260 252 246 241 237 233 230 228 228 229 229 228 227 227 228 230 232 235 237 238 240 242 243 243 245 247 248 249 250 252 256 258 256 253 251 249 247 246 248 250 250 250 246 240 231 221 213 208 204 199 196 194 194 192 189 187 184
337 338 338 339 340 341 341 343 344 345 345 344 344 343 340 338 336 334 331 328 325 321 317 308 295 282 274 268 262 255 249 244 240 236 232 229 228 228 228 229 228 228 228 230 232 234 236 238 239 241 242 243 244 246 247 247 248 249 252 255 255 252 249 248 246 244 244 246 246 246 243 236 227 220 214 209 205 202 200 199 199 198 194 191 188
337 337 337 338 339 340 341 342 343 344 344 344 344 343 341 338 336 334 332 329 325 321 317 310 299 286 275 269 263 258 252 246 242 239 235 232 229 228 227 228 229 229 229 230 232 234 236 237 238 239 241 243 244 246 246 247 247 248 250 253 254 251 247 247 245 242 241 241 241 241 240 235 225 218 215 211 207 205 204 203 202 202 199 195 193
336 336 337 338 339 340 340 341 342 343 343 344 344 343 342 339 336 334 332 329 325 321 317 311 303 291 278 269 264 259 254 249 244 241 238 234 231 229 228 228 228 229 229 230 231 233 235 237 237 238 240 241 243 245 246 246 247 247 248 250 252 250 246 245 243 240 237 237 237 236 236 235 227 219 215 213 210 207 207 207 205 205 202 199 196
335 336 336 337 338 339 340 341 341 342 343 343 343 343 342 339 336 334 332 330 326 321 317 312 305 295 282 271 264 260 256 251 246 242 239 237 233 231 229 229 229 229 230 230 230 232 234 236 237 237 239 240 242 243 244 245 246 247 247 248 249 248 244 243 244 240 235 234 235 233 231 232 229 221 216 215 213 210 210 210 209 207 205 202 200
334 335 336 337 338 339 340 340 341 341 342 342 343 343 342 340 337 334 332 330 327 322 317 312 306 298 287 275 266 260 257 254 249 244 241 238 235 232 230 229 229 230 231 231 231 231 233 235 236 236 238 240 241 242 243 244 245 246 246 247 248 248 246 245 246 243 236 231 232 231 229 229 229 224 217 215 214 212 211 212 212 211 208 204 203
334 335 336 336 337 338 339 340 340 340 340 341 342 342 342 340 338 334 332 330 327 323 317 312 307 301 291 279 269 262 257 254 251 247 242 239 237 234 232 230 229 230 231 232 232 231 232 234 235 235 237 239 240 241 242 243 244 245 245 245 246 248 247 245 244 243 237 230 228 229 228 227 228 226 220 217 215 214 212 213 214 213 211 207 205
334 334 335 336 337 338 339 339 340 339 339 340 341 341 341 340 338 335 332 329 327 324 319 312 307 301 294 283 272 264 258 254 252 249 245 241 238 236 234 231 230 229 230 232 232 232 232 233 234 234 236 238 239 240 241 242 242 243 243 243 243 244 245 243 240 239 236 230 225 225 227 226 226 226 223 220 217 215 214 213 214 215 214 210 207
333 334 335 336 337 338 338 339 339 339 338 339 339 340 340 339 338 335 332 329 326 324 320 313 307 302 295 286 276 266 260 255 252 250 247 244 240 237 235 233 232 230 230 231 232 232 232 232 232 233 235 236 238 240 241 241 241 241 241 242 242 242 243 242 239 236 234 230 224 222 224 225 224 224 224 222 219 216 215 214 214 215 216 214 210
333 333 334 335 336 337 338 338 338 338 338 338 338 339 339 338 337 335 332 329 325 323 320 315 308 302 296 289 280 270 262 257 253 250 248 245 242 239 236 235 233 232 230 230 231 232 232 232 232 232 233 235 236 238 240 241 240 239 239 240 241 242 242 242 240 235 232 230 226 223 222 223 223 223 223 223 221 218 216 215 215 216 217 217 214
333 333 334 335 336 336 337 337 337 337 337 337 337 337 337 337 336 334 332 329 326 322 319 315 309 302 297 290 283 273 265 259 255 251 249 246 244 241 238 236 234 233 231 230 230 230 231 232 232 232 233 233 234 236 238 239 239 238 236 237 238 239 240 241 240 236 230 228 227 226 224 223 223 223 223 223 222 220 218 217 217 217 218 218 218
332 333 334 335 335 336 336 336 336 336 336 336 336 336 336 336 335 333 331 329 326 322 318 315 310 303 297 291 285 277 268 261 256 253 250 247 245 242 239 237 235 233 231 230 229 229 229 231 232 232 233 233 233 233 235 237 238 237 236 234 234 235 237 238 239 236 230 226 226 227 226 224 223 223 222 222 223 222 220 219 218 219 219 219 220
Height
10678 10676 10674 10671 10669 10665 10661 10659 10656 10652 10649 10645 10642 10639 10636 10633 10631 10629 10627 10624 10621 10619 10618 10617 10614 10611 10609 10607 10607 10606 10605 10602 10600 10599 10597 10595 10594 10592 10590 10588 10586 10584 10581 10579 10576 10573 10570 10568 10565 10562 10558 10555 10551 10547 10543 10539 10536 10532 10529 10526 10524 10521 10519 10516 10514 10512 10510 10509 10508 10508 10506 10505 10503 10501 10501 10500 10498 10496 10494 10493 10492 10491 10489 10487 10485
10674 10672 10670 10668 10665 10662 10658 10655 10651 10648 10645 10641 10638 10635 10631 10628 10625 10622 10620 10617 10615 10613 10612 10612 10609 10606 10604 10602 10601 10600 10599 10598 10596 10594 10593 10591 10590 10588 10586 10585 10583 10581 10578 10576 10573 10570 10567 10564 10561 10558 10555 10551 10547 10544 10540 10536 10532 10528 10525 10523 10520 10518 10516 10513 10511 10509 10507 10505 10505 10505 10504 10503 10501 10498 10497 10497 10495 10493 10492 10491 10490 10489 10487 10485 10482
10671 10669 10666 10663 10661 10658 10655 10651 10647 10644 10640 10636 10633 10629 10626 10623 10619 10616 10613 10610 10607 10606 10605 10605 10603 10601 10600 10598 10595 10594 10593 10593 10591 10589 10588 10587 10586 10584 10583 10581 10580 10578 10575 10573 10571 10568 10565 10562 10559 10555 10552 10548 10545 10541 10537 10533 10529 10525 10522 10519 10517 10515 10513 10511 10509 10507 10505 10503 10502 10502 10501 10500 10499 10497 10495 10494 10493 10492 10490 10489 10488 10486 10485 10483 10480
10666 10664 10661 10658 10655 10652 10649 10646 10642 10638 10634 10631 10627 10623 10620 10617 10614 10610 10606 10603 10600 10598 10598 10597 10597 10595 10594 10593 10590 10588 10587 10587 10586 10584 10584 10583 10582 10580 10578 10577 10577 10575 10573 10571 10569 10566 10563 10560 10556 10553 10550 10546 10542 10538 10534 10530 10526 10523 10519 10517 10515 10513 10511 10509 10507 10505 10503 10501 10500 10500 10499 10498 10497 10496 10495 10493 10492 10491 10489 10487 10486 10485 10483 10481 10479
10661 10658 10654 10651 10647 10644 10641 10638 10634 10631 10627 10623 10619 10616 10613 10610 10606 10603 10599 10595 10592 10590 10590 10590 10590 10589 10588 10586 10584 10582 10582 10581 10580 10579 10578 10578 10577 10576 10574 10573 10573 10572 10570 10569 10567 10564 10561 10558 10555 10551 10548 10544 10540 10536 10532 10527 10523 10520 10517 10515 10512 10510 10509 10507 10505 10503 10502 10500 10499 10498 10498 10497 10497 10496 10495 10493 10491 10490 10489 10487 10486 10485 10483 10481 10478
10656 10653 10649 10645 10641 10637 10633 10630 10626 10622 10618 10614 10609 10605 10602 10600 10597 10593 10590 10587 10584 10582 10581 10581 10582 10582 10581 10579 10578 10577 10576 10576 10575 10574 10573 10572 10572 10572 10570 10568 10569 10568 10566 10565 10564 10562 10559 10556 10553 10550 10546 10542 10538 10534 10530 10526 10521 10518 10515 10513 10511 10509 10507 10506 10504 10502 10500 10499 10499 10498 10497 10496 10496 10495 10494 10492 10491 10489 10488 10487 10486 10484 10482 10480 10478
10652 10648 10644 10639 10634 10630 10627 10622 10618 10613 10609 10605 10600 10596 10592 10589 10586 10583 10580 10578 10575 10574 10573 10572 10573 10575 10574 10572 10571 10571 10570 10569 10569 10568 10567 10567 10567 10568 10566 10564 10564 10564 10563 10562 10560 10559 10557 10554 10551 10548 10544 10540 10536 10532 10528 10524 10520 10516 10514 10512 10510 10508 10507 10505 10503 10501 10500 10499 10498 10497 10496 10495 10494 10494 10493 10492 10491 10490 10488 10487 10486 10484 10482 10480 10478
10648 10643 10639 10634 10628 10623 10619 10615 10610 10605 10600 10595 10590 10585 10581 10578 10575 10572 10570 10568 10566 10565 10566 10566 10565 10565 10565 10564 10563 10564 10563 10562 10562 10562 10562 10560 10561 10562 10561 10560 10560 10560 10559 10558 10557 10556 10555 10553 10549 10546 10543 10539 10535 10530 10526 10522 10519 10515 10513 10511 10509 10508 10506 10504 10502 10501 10500 10499 10498 10497 10496 10495 10494 10493 10492 10491 10491 10490 10489 10487 10486 10485 10483 10480 10478
10643 10639 10634 10629 10623 10617 10611 10606 10601 10596 10590 10585 10579 10575 10570 10566 10563 10561 10558 10557 10556 10555 10559 10559 10556 10555 10555 10555 10555 10555 10555 10555 10555 10556 10556 10555 10555 10556 10556 10555 10555 10555 10554 10554 10553 10552 10552 10550 10547 10544 10541 10537 10533 10529 10525 10521 10518 10515 10512 10510 10509 10507 10505 10504 10502 10501 10500 10499 10497 10497 10496 10496 10495 10494 10493 10491 10490 10490 10489 10488 10486 10485 10483 10481 10479
10639 10634 10630 10625 10619 10613 10606 10600 10594 10587 10580 10574 10568 10563 10558 10554 10550 10548 10546 10546 10545 10544 10545 10546 10545 10544 10545 10546 10546 10546 10547 10548 10548 10549 10549 10550 10550 10550 10550 10550 10550 10550 10550 10549 10549 10548 10547 10547 10545 10542 10540 10536 10532 10528 10524 10521 10517 10515 10512 10510 10508 10506 10505 10503 10502 10501 10500 10499 10497 10496 10496 10495 10495 10494 10493 10492 10491 10489 10488 10487 10486 10485 10483 10481 10479
10633 10628 10624 10619 10614 10608 10601 10594 10588 10581 10573 10565 10557 10551 10546 10542 10538 10535 10533 10533 10533 10532 10532 10532 10533 10534 10535 10535 10535 10536 10539 10540 10541 10542 10543 10544 10544 10544 10544 10545 10545 10545 10545 10545 10544 10544 10543 10543 10542 10541 10538 10535 10531 10527 10523 10520 10517 10514 10512 10510 10508 10506 10505 10503 10502 10501 10500 10499 10497 10497 10496 10495 10495 10494 10493 10492 10491 10489 10488 10487 10485 10484 10483 10481 10480
10625 10620 10616 10612 10607 10601 10594 10586 10578 10571 10563 10555 10546 10539 10534 10529 10526 10522 10520 10520 10521 10521 10520 10521 10523 10524 10525 10525 10525 10527 10531 10532 10534 10536 10537 10538 10539 10539 10539 10539 10539 10540 10540 10540 10540 10539 10539 10539 10539 10538 10536 10534 10530 10526 10523 10519 10516 10514 10511 10509 10507 10505 10504 10503 10502 10500 10499 10498 10497 10497 10496 10495 10495 10494 10493 10492 10491 10490 10488 10487 10485 10484 10483 10481 10480
10615 10610 10605 10601 10596 10591 10585 10577 10568 10559 10551 10543 10534 10526 10521 10517 10514 10510 10508 10507 10508 10509 10508 10510 10513 10515 10516 10517 10516 10518 10521 10524 10526 10529 10531 10532 10533 10533 10533 10533 10533 10534 10535 10535 10535 10535 10535 10535 10535 10535 10534 10532 10529 10526 10522 10519 10516 10513 10511 10508 10506 10505 10504 10503 10501 10500 10499 10498 10497 10497 10496 10495 10495 10494 10493 10492 10491 10490 10489 10487 10486 10485 10483 10482 10480
10606 10600 10593 10587 10582 10577 10572 10565 10557 10548 10539 10531 10523 10515 10508 10504 10501 10499 10496 10495 10495 10496 10497 10499 10502 10504 10505 10506 10508 10509 10511 10515 10518 10521 10523 10525 10526 10527 10528 10528 10528 10529 10530 10530 10530 10530 10530 10531 10531 10531 10531 10530 10528 10525 10521 10518 10516 10513 10511 10509 10507 10505 10504 10503 10501 10500 10499 10499 10498 10497 10497 10496 10495 10494 10493 10492 10491 10490 10489 10488 10486 10485 10483 10482 10481
10600 10594 10587 10580 10573 10566 10560 10553 10545 10536 10526 10517 10510 10503 10497 10492 10489 10487 10485 10483 10483 10484 10485 10487 10491 10493 10494 10496 10499 10501 10502 10505 10510 10513 10515 10517 10520 10521 10522 10522 10523 10524 10525 10525 10525 10525 10526 10526 10527 10527 10528 10527 10525 10523 10520 10517 10515 10513 10511 10509 10507 10505 10504 10503 10501 10500 10500 10499 10498 10498 10497 10496 10495 10494 10493 10492 10491 10490 10489 10488 10487 10485 10483 10482 10481
10594 10587 10580 10573 10565 10558 10551 10543 10534 10525 10515 10506 10498 10491 10486 10481 10477 10475 10474 10472 10471 10472 10474 10476 10479 10482 10484 10488 10492 10493 10493 10497 10502 10505 10507 10510 10512 10515 10516 10516 10517 10518 10519 10520 10521 10521 10521 10522 10523 10523 10524 10524 10523 10521 10519 10516 10514 10512 10510 10508 10507 10505 10504 10502 10501 10500 10499 10499 10498 10497 10496 10495 10494 10493 10493 10492 10491 10490 10489 10488 10487 10486 10484 10482 10480
10585 10577 10569 10562 10554 10548 10541 10533 10523 10513 10504 10496 10488 10481 10475 10470 10466 10464 10463 10462 10461 10462 10463 10465 10468 10472 10475 10479 10482 10484 10486 10489 10493 10496 10500 10503 10505 10507 10509 10510 10511 10512 10514 10515 10515 10516 10517 10518 10519 10520 10520 10521 10520 10519 10517 10515 10513 10511 10509 10508 10506 10505 10503 10502 10501 10500 10499 10498 10498 10497 10496 10495 10494 10493 10493 10492 10491 10490 10489 10488 10487 10486 10484 10482 10480
10576 10569 10561 10552 10544 10537 10531 10524 10515 10503 10492 10485 10479 10471 10465 10460 10456 10454 10453 10453 10453 10453 10453 10455 10458 10462 10465 10469 10472 10474 10478 10481 10484 10488 10493 10497 10498 10500 10503 10504 10505 10507 10508 10509 10510 10511 10512 10514 10515 10516 10517 10517 10517 10516 10515 10513 10511 10510 10508 10506 10505 10504 10503 10502 10500 10499 10498 10498 10497 10496 10495 10494 10494 10493 10493 10492 10491 10490 10489 10488 10486 10485 10484 10482 10480
10570 10563 10554 10545 10536 10527 10520 10514 10505 10495 10484 10475 10469 10463 10456 10451 10448 10445 10444 10445 10445 10444 10444 10446 10449 10453 10456 10460 10462 10465 10468 10472 10476 10480 10485 10490 10492 10494 10495 10497 10499 10501 10503 10504 10505 10507 10508 10509 10511 10512 10513 10514 10514 10514 10513 10511 10510 10509 10507 10505 10504 10503 10502 10501 10500 10499 10498 10497 10497 10496 10495 10494 10493 10492 10492 10492 10491 10490 10489 10488 10486 10485 10483 10482 10480
10565 10558 10549 10540 10530 10520 10511 10502 10494 10485 10476 10467 10461 10455 10448 10443 10440 10437 10436 10436 10436 10436 10436 10438 10441 10444 10448 10451 10454 10457 10460 10464 10468 10474 10479 10482 10485 10488 10489 10491 10493 10495 10497 10499 10500 10502 10504 10505 10507 10508 10509 10510 10511 10512 10511 10510 10508 10507 10506 10505 10504 10503 10502 10501 10500 10499 10498 10497 10496 10495 10495 10493 10492 10492 10491 10491 10491 10490 10489 10488 10487 10485 10484 10482 10481
10560 10552 10544 10534 10524 10514 10504 10495 10485 10476 10467 10460 10454 10448 10441 10436 10433 10430 10428 10428 10428 10429 10429 10430 10432 10435 10439 10443 10446 10449 10452 10456 10461 10466 10471 10473 10477 10480 10482 10484 10487 10488 10490 10493 10495 10497 10499 10500 10502 10504 10505 10507 10508 10509 10509 10508 10506 10506 10505 10503 10503 10502 10501 10500 10499 10498 10497 10497 10496 10495 10494 10493 10492 10491 10491 10491 10490 10489 10489 10488 10487 10485 10484 10482 10481
10554 10546 10537 10528 10518 10508 10499 10489 10479 10469 10460 10452 10446 10441 10436 10430 10426 10423 10421 10421 10421 10422 10422 10422 10424 10427 10430 10434 10438 10440 10444 10448 10452 10457 10462 10465 10468 10472 10475 10478 10481 10483 10485 10487 10490 10492 10494 10496 10498 10500 10502 10504 10506 10506 10507 10506 10504 10504 10503 10502 10501 10501 10500 10500 10499 10498 10497 10496 10495 10494 10493 10493 10492 10491 10490 10490 10490 10489 10488 10487 10486 10485 10484 10482 10481
10548 10539 10530 10520 10510 10501 10492 10483 10473 10463 10454 10446 10439 10434 10430 10425 10420 10417 10415 10415 10415 10415 10415 10415 10417 10420 10423 10426 10429 10433 10437 10440 10444 10449 10454 10458 10461 10465 10469 10471 10474 10477 10479 10482 10485 10487 10489 10492 10494 10496 10498 10501 10502 10504 10504 10503 10502 10501 10501 10501 10500 10499 10499 10498 10498 10497 10496 10495 10495 10494 10493 10492 10491 10491 10490 10489 10489 10488 10488 10487 10486 10484 10483 10482 10480
10542 10533 10524 10514 10503 10493 10484 10476 10467 10458 10449 10441 10434 10428 10424 10420 10415 10411 10409 10409 10409 10409 10409 10410 10411 10414 10416 10419 10423 10427 10430 10433 10437 10442 10448 10451 10454 10458 10461 10464 10468 10471 10473 10476 10479 10481 10484 10487 10490 10492 10494 10497 10499 10500 10501 10501 10500 10499 10499 10499 10498 10497 10497 10497 10496 10496 10495 10495 10494 10493 10492 10492 10491 10490 10489 10489 10488 10488 10487 10486 10485 10484 10482 10481 10480
10536 10528 10519 10509 10498 10488 10478 10468 10460 10452 10444 10437 10430 10423 10418 10414 10411 10407 10404 10403 10403 10403 10403 10403 10405 10407 10411 10415 10419 10422 10425 10427 10431 10436 10441 10445 10449 10452 10454 10457 10461 10464 10466 10469 10473 10476 10479 10483 10485 10488 10491 10493 10495 10497 10498 10498 10498 10497 10497 10496 10496 10495 10495 10495 10495 10494 10494 10493 10493 10492 10491 10491 10490 10489 10489 10488 10487 10487 10487 10486 10485 10484 10482 10481 10479
10530 10522 10513 10504 10493 10483 10472 10462 10453 10445 10438 10431 10425 10419 10414 10409 10406 10402 10399 10397 10397 10397 10398 10398 10399 10401 10405 10410 10414 10417 10420 10423 10426 10430 10435 10440 10444 10446 10448 10451 10455 10458 10460 10463 10466 10470 10474 10477 10480 10483 10486 10489 10491 10493 10495 10495 10495 10495 10495 10494 10494 10493 10493 10493 10493 10493 10492 10492 10491 10491 10490 10490 10489 10488 10488 10487 10487 10486 10486 10485 10485 10483 10482 10480 10479
10524 10516 10507 10498 10488 10478 10468 10458 10448 10439 10432 10426 10420 10414 10410 10406 10402 10397 10394 10392 10391 10392 10393 10394 10394 10396 10399 10403 10407 10411 10415 10418 10421 10424 10429 10434 10438 10440 10442 10446 10450 10453 10454 10457 10461 10465 10468 10472 10476 10479 10482 10484 10487 10489 10491 10492 10492 10492 10492 10492 10492 10491 10491 10491 10491 10491 10491 10490 10490 10490 10489 10489 10488 10488 10487 10486 10486 10485 10485 10485 10484 10483 10482 10480 10479
10519 10510 10502 10493 10483 10474 10464 10454 10444 10435 10427 10421 10416 10410 10404 10401 10398 10394 10390 10387 10386 10386 10387 10388 10389 10391 10393 10396 10400 10404 10409 10412 10415 10419 10423 10428 10431 10434 10438 10442 10445 10447 10449 10451 10455 10459 10462 10467 10471 10474 10477 10480 10483 10485 10488 10489 10489 10489 10490 10490 10490 10489 10489 10489 10489 10489 10489 10489 10489 10488 10488 10488 10488 10487 10486 10486 10485 10485 10484 10484 10484 10483 10482 10480 10479
10513 10505 10496 10487 10478 10468 10459 10450 10440 10431 10423 10416 10412 10407 10401 10395 10392 10390 10387 10383 10381 10381 10382 10383 10384 10386 10388 10391 10394 10398 10402 10406 10409 10413 10417 10421 10425 10429 10433 10436 10440 10442 10443 10446 10449 10453 10458 10462 10465 10468 10472 10476 10478 10481 10484 10485 10486 10486 10487 10488 10488 10487 10487 10487 10487 10487 10488 10487 10487 10487 10487 10487 10487 10486 10486 10485 10485 10484 10484 10484 10483 10482 10481 10480 10479
10509 10500 10491 10482 10473 10463 10453 10444 10435 10426 10418 10411 10406 10403 10400 10395 10388 10383 10382 10380 10378 10376 10376 10378 10380 10381 10383 10386 10388 10392 10396 10399 10402 10406 10410 10414 10419 10424 10428 10431 10435 10437 10438 10441 10444 10448 10452 10456 10459 10462 10467 10472 10474 10477 10480 10482 10483 10483 10484 10485 10485 10485 10485 10485 10485 10485 10486 10486 10486 10485 10485 10485 10485 10485 10485 10484 10484 10484 10483 10483 10483 10482 10481 10481 10480
10506 10498 10489 10479 10470 10459 10449 10440 10430 10422 10415 10408 10401 10396 10394 10393 10388 10381 10376 10375 10375 10373 10371 10372 10374 10376 10377 10379 10382 10385 10388 10391 10395 10399 10403 10408 10413 10418 10422 10425 10429 10431 10433 10435 10439 10442 10446 10450 10453 10457 10462 10467 10470 10472 10475 10478 10480 10481 10481 10482 10483 10483 10483 10483 10483 10483 10484 10484 10484 10484 10484 10484 10484 10484 10483 10483 10483 10483 10483 10483 10482 10482 10482 10481 10480
10503 10494 10485 10476 10467 10457 10447 10436 10427 10418 10411 10404 10398 10392 10387 10386 10385 10382 10375 10370 10369 10369 10368 10367 10369 10370 10371 10372 10375 10377 10380 10383 10388 10392 10397 10402 10406 10410 10413 10417 10421 10424 10427 10429 10432 10436 10439 10443 10447 10452 10457 10461 10464 10466 10470 10473 10476 10478 10478 10479 10480 10480 10481 10481 10480 10481 10482 10483 10483 10482 10482 10482 10482 10482 10482 10482 10482 10482 10482 10483 10482 10482 10482 10482 10481
10498 10490 10481 10472 10464 10454 10444 10434 10424 10415 10407 10401 10395 10390 10384 10379 10378 10378 10375 10369 10365 10364 10364 10363 10363 10364 10365 10366 10368 10370 10373 10376 10381 10386 10391 10395 10398 10401 10404 10408 10412 10417 10420 10423 10425 10429 10432 10436 10441 10446 10450 10453 10457 10462 10466 10468 10472 10474 10475 10476 10477 10477 10478 10478 10479 10479 10480 10481 10481 10481 10481 10481 10481 10481 10481 10481 10481 10481 10482 10482 10482 10482 10482 10482 10482
10492 10484 10476 10468 10459 10451 10442 10433 10422 10413 10405 10398 10392 10386 10382 10376 10372 10371 10370 10368 10364 10361 10359 10359 10358 10358 10359 10361 10363 10365 10367 10371 10375 10380 10384 10387 10390 10393 10397 10401 10405 10410 10413 10415 10417 10421 10425 10430 10435 10440 10442 10446 10452 10458 10460 10463 10467 10470 10472 10472 10473 10474 10475 10476 10477 10477 10478 10479 10480 10479 10479 10479 10480 10480 10479 10480 10480 10481 10481 10482 10482 10482 10482 10482 10482
10486 10478 10470 10462 10454 10446 10438 10430 10421 10411 10402 10395 10389 10383 10378 10374 10370 10366 10365 10364 10362 10358 10356 10354 10353 10353 10354 10356 10357 10359 10362 10365 10368 10372 10375 10379 10382 10386 10390 10395 10399 10402 10405 10407 10410 10414 10418 10423 10428 10433 10436 10441 10447 10452 10455 10458 10462 10466 10469 10469 10470 10471 10472 10473 10474 10475 10475 10477 10478 10478 10477 10478 10478 10478 10478 10478 10479 10480 10481 10482 10482 10483 10483 10483 10483
10481 10473 10464 10456 10448 10441 10434 10426 10418 10409 10401 10392 10385 10379 10375 10371 10367 10363 10361 10359 10358 10355 10352 10350 10349 10349 10349 10350 10352 10353 10356 10359 10362 10364 10367 10371 10375 10379 10384 10388 10392 10395 10398 10400 10403 10408 10412 10417 10421 10426 10430 10435 10441 10446 10450 10453 10457 10461 10465 10466 10467 10468 10470 10471 10472 10472 10473 10474 10475 10476 10476 10476 10476 10477 10477 10477 10478 10479 10480 10481 10482 10483 10483 10483 10483
10477 10469 10461 10452 10444 10437 10430 10422 10414 10406 10398 10391 10383 10377 10371 10367 10363 10360 10357 10355 10354 10352 10349 10347 10345 10344 10345 10345 10346 10348 10350 10353 10356 10358 10361 10364 10368 10372 10376 10381 10385 10390 10392 10395 10398 10402 10406 10410 10414 10419 10424 10429 10435 10440 10444 10448 10452 10456 10460 10462 10464 10465 10467 10468 10469 10470 10471 10472 10473 10474 10474 10474 10475 10475 10475 10476 10477 10478 10479 10480 10481 10482 10483 10483 10483
10475 10466 10458 10450 10442 10433 10425 10418 10410 10402 10394 10387 10381 10375 10369 10364 10360 10357 10354 10351 10350 10348 10346 10343 10341 10340 10340 10341 10342 10343 10345 10347 10350 10353 10355 10358 10361 10364 10369 10375 10380 10384 10387 10389 10392 10396 10400 10404 10408 10413 10419 10424 10429 10434 10439 10444 10448 10451 10455 10458 10461 10462 10464 10465 10466 10467 10469 10470 10471 10472 10472 10473 10473 10474 10474 10475 10476 10477 10478 10479 10480 10481 10482 10482 10483
10469 10461 10454 10446 10438 10430 10422 10415 10407 10399 10391 10384 10377 10372 10366 10361 10357 10353 10350 10348 10346 10344 10342 10340 10338 10336 10336 10336 10337 10338 10339 10341 10344 10347 10350 10353 10356 10359 10364 10369 10374 10378 10381 10383 10386 10389 10394 10398 10402 10407 10413 10419 10423 10428 10434 10438 10443 10446 10449 10453 10456 10459 10460 10461 10463 10465 10466 10468 10469 10470 10471 10471 10472 10472 10473 10473 10474 10475 10477 10478 10480 10481 10481 10482 10482
10463 10455 10448 10441 10434 10426 10419 10412 10404 10397 10389 10381 10374 10368 10363 10358 10353 10350 10347 10344 10342 10340 10338 10336 10334 10332 10331 10331 10332 10333 10334 10336 10338 10341 10344 10347 10351 10355 10359 10363 10368 10371 10374 10377 10380 10383 10387 10392 10396 10401 10407 10412 10417 10421 10427 10432 10437 10441 10444 10446 10451 10455 10457 10458 10460 10462 10464 10465 10466 10468 10469 10469 10470 10471 10471 10472 10473 10474 10476 10477 10478 10480 10481 10481 10482
10459 10451 10443 10436 10429 10422 10414 10407 10400 10393 10386 10379 10372 10365 10359 10354 10350 10346 10343 10340 10338 10336 10334 10332 10331 10329 10327 10326 10327 10328 10329 10331 10333 10336 10339 10342 10345 10349 10353 10357 10361 10365 10368 10371 10374 10376 10380 10385 10391 10395 10400 10405 10409 10414 10420 10426 10431 10435 10438 10441 10445 10450 10454 10455 10456 10458 10460 10462 10464 10465 10466 10467 10468 10469 10469 10470 10471 10473 10474 10476 10477 10478 10480 10480 10481
10455 10447 10439 10431 10424 10417 10409 10402 10396 10389 10383 10376 10369 10363 10356 10351 10346 10342 10339 10337 10334 10332 10330 10328 10326 10325 10324 10322 10322 10323 10324 10326 10328 10330 10333 10336 10340 10343 10347 10350 10354 10358 10362 10365 10368 10370 10374 10379 10384 10389 10393 10398 10403 10408 10413 10419 10425 10430 10433 10436 10440 10445 10449 10451 10452 10454 10457 10459 10461 10462 10464 10465 10466 10466 10467 10468 10470 10471 10472 10474 10475 10477 10478 10479 10480
10450 10443 10436 10428 10420 10412 10405 10398 10391 10385 10378 10372 10365 10359 10353 10347 10343 10339 10335 10332 10330 10328 10326 10324 10322 10321 10320 10319 10318 10318 10319 10320 10322 10324 10327 10330 10334 10337 10340 10343 10347 10351 10355 10359 10362 10364 10367 10372 10378 10382 10387 10391 10396 10401 10407 10413 10419 10423 10428 10431 10435 10439 10444 10447 10448 10450 10453 10455 10457 10459 10461 10462 10463 10464 10465 10466 10468 10469 10471 10472 10474 10475 10476 10478 10479
10445 10438 10431 10423 10416 10408 10400 10393 10386 10380 10374 10368 10362 10356 10350 10344 10339 10335 10332 10329 10326 10324 10322 10320 10319 10317 10316 10315 10314 10313 10314 10315 10317 10319 10321 10324 10327 10331 10334 10337 10340 10343 10347 10351 10355 10358 10361 10365 10371 10376 10380 10384 10390 10395 10400 10406 10412 10417 10421 10425 10429 10433 10438 10442 10444 10446 10450 10452 10454 10455 10457 10458 10459 10461 10462 10464 10465 10467 10469 10470 10472 10473 10475 10476 10477
10440 10432 10425 10418 10411 10403 10395 10388 10380 10374 10369 10364 10358 10352 10346 10341 10336 10331 10328 10325 10322 10319 10317 10316 10314 10313 10312 10311 10310 10309 10309 10310 10312 10314 10316 10318 10321 10324 10327 10330 10333 10336 10339 10343 10348 10351 10355 10359 10364 10369 10373 10378 10383 10389 10394 10399 10404 10410 10415 10420 10424 10428 10433 10437 10440 10443 10446 10448 10449 10451 10453 10455 10456 10457 10459 10461 10462 10464 10466 10468 10469 10471 10473 10475 10476
10434 10426 10419 10412 10405 10398 10390 10383 10375 10369 10363 10358 10353 10348 10343 10337 10332 10327 10323 10320 10318 10316 10313 10311 10310 10309 10308 10307 10306 10305 10305 10305 10306 10308 10310 10312 10314 10317 10320 10323 10326 10329 10332 10335 10340 10345 10349 10353 10357 10362 10367 10371 10376 10382 10387 10392 10398 10404 10409 10414 10418 10422 10426 10431 10435 10438 10441 10443 10445 10447 10448 10450 10452 10454 10456 10458 10459 10461 10463 10465 10467 10468 10470 10472 10474
10428 10421 10414 10407 10399 10392 10385 10378 10371 10364 10358 10353 10348 10344 10338 10334 10329 10324 10320 10316 10314 10311 10309 10307 10305 10304 10303 10303 10302 10301 10301 10301 10301 10302 10304 10306 10308 10310 10313 10316 10319 10322 10324 10328 10332 10337 10342 10347 10351 10356 10360 10364 10369 10374 10379 10385 10391 10397 10402 10406 10411 10414 10417 10422 10426 10430 10433 10437 10440 10442 10443 10445 10448 10450 10452 10454 10456 10458 10460 10462 10464 10466 10467 10469 10471
10422 10415 10408 10401 10394 10387 10380 10373 10366 10360 10353 10348 10343 10339 10334 10329 10325 10321 10316 10313 10309 10307 10305 10303 10301 10299 10299 10298 10298 10297 10296 10296 10296 10297 10298 10300 10302 10304 10306 10309 10311 10314 10317 10321 10324 10329 10334 10339 10344 10349 10353 10357 10362 10366 10371 10377 10383 10389 10394 10399 10403 10407 10410 10414 10419 10423 10427 10431 10435 10437 10438 10440 10443 10445 10448 10450 10452 10454 10457 10459 10461 10462 10464 10465 10468
10416 10409 10402 10396 10389 10382 10375 10368 10362 10355 10349 10343 10338 10333 10329 10325 10321 10316 10313 10309 10305 10303 10301 10299 10296 10295 10294 10293 10293 10292 10292 10291 10291 10292 10292 10294 10296 10298 10300 10302 10304 10308 10311 10314 10318 10322 10326 10331 10336 10341 10346 10351 10355 10359 10363 10368 10374 10380 10386 10391 10396 10400 10404 10408 10412 10416 10421 10425 10429 10432 10433 10435 10437 10440 10443 10445 10448 10450 10453 10455 10457 10459 10460 10462 10464
10410 10402 10396 10389 10382 10376 10369 10363 10357 10350 10344 10338 10333 10328 10324 10320 10316 10312 10308 10305 10301 10298 10296 10294 10292 10290 10289 10288 10288 10288 10287 10287 10287 10287 10287 10288 10290 10291 10293 10295 10298 10301 10304 10308 10312 10315 10319 10323 10328 10333 10338 10343 10347 10351 10354 10359 10364 10370 10376 10382 10387 10392 10396 10400 10404 10409 10414 10419 10423 10426 10428 10429 10432 10435 10437 10440 10443 10446 10448 10451 10453 10455 10457 10458 10460
10403 10395 10389 10382 10376 10370 10363 10357 10351 10345 10340 10334 10328 10323 10319 10315 10311 10307 10304 10300 10297 10294 10291 10289 10288 10286 10284 10283 10282 10282 10282 10282 10282 10282 10282 10283 10284 10285 10287 10289 10292 10294 10298 10301 10305 10309 10312 10316 10320 10325 10329 10333 10337 10342 10347 10351 10355 10360 10366 10372 10377 10383 10388 10392 10396 10401 10406 10411 10416 10419 10422 10424 10426 10429 10432 10435 10438 10440 10443 10446 10449 10451 10453 10455 10457